Slidell, LA

4:58 PM CST on January 22, 2018 (GMT -0600)
Slidell

Weather History for KASD - August, 2014

Change the Weather History Date:

Friday, August 29, 2014

  Actual Average (KNEW) Record (KNEW)
Temperature  
Mean Temperature 80 °F -  
Max Temperature 90 °F 89 °F 97 °F (2011)
Min Temperature 72 °F 77 °F 63 °F (1992)
Cooling Degree Days 15    
Growing Degree Days 30 (Base 50)    
Moisture  
Dew Point 73 °F    
Average Humidity 86    
Maximum Humidity 94    
Minimum Humidity 59    
Precipitation  
Precipitation 0.15 in - - ()
Sea Level Pressure  
Sea Level Pressure 29.97 in    
Wind  
Wind Speed 4 mph (East)    
Max Wind Speed 10 mph    
Max Gust Speed 18 mph    
Visibility 9 miles    
Events Rain , Thunderstorm    
Averages and records for this station are not official NWS values.
T = Trace of Precipitation, MM = Missing Value Source: NWS Daily Summary

Daily Weather History Graph

Daily Weather History Graph

Search for Another Location

Airport or City:

Trip Planner

Search our weather history database for the weather conditions in past years. The results will help you decide how hot, cold, wet, or windy it might be!

Date:

Astronomy

Aug. 29, 2014 Rise Set
Actual Time 6:34 AM CDT 7:25 PM CDT
Civil Twilight 6:09 AM CDT 7:50 PM CDT
Nautical Twilight 5:40 AM CDT 8:18 PM CDT
Astronomical Twilight 5:11 AM CDT 8:48 PM CDT
Moon 10:05 AM CDT (8/29) 9:43 PM CDT (8/29)
Length of Visible Light 13h 40m
Length of Day
12h 51m
Waxing Crescent, 15% of the Moon is Illuminated
Aug 29
Waxing Crescent
Sep 2
First Quarter
Sep 8
Full
Sep 15
Last Quarter
Sep 24
New

Hourly Weather History & Observations

Time (CDT) Temp. Heat Index Dew Point Humidity Pressure Visibility Wind Dir Wind Speed Gust Speed Precip Events Conditions
12:53 AM 73.9 °F - 71.1 °F 91% 29.96 in 10.0 mi North 3.5 mph - N/A   Clear
1:53 AM 73.0 °F - 71.1 °F 93% 29.95 in 10.0 mi Calm Calm - N/A   Clear
2:53 AM 73.0 °F - 70.0 °F 90% 29.95 in 10.0 mi Calm Calm - N/A   Clear
3:53 AM 72.0 °F - 70.0 °F 93% 29.94 in 10.0 mi Calm Calm - N/A   Clear
4:53 AM 72.0 °F - 69.1 °F 91% 29.95 in 10.0 mi Calm Calm - N/A   Clear
5:53 AM 72.0 °F - 69.1 °F 91% 29.96 in 10.0 mi NNE 3.5 mph - N/A   Clear
6:53 AM 72.0 °F - 69.1 °F 91% 29.95 in 10.0 mi NNE 4.6 mph - N/A   Clear
7:53 AM 77.0 °F - 73.0 °F 88% 29.94 in 10.0 mi NE 4.6 mph - N/A   Clear
8:53 AM 82.9 °F 89.4 °F 73.9 °F 74% 29.95 in 10.0 mi Variable 3.5 mph - N/A   Clear
10:53 AM 87.1 °F 95.4 °F 73.9 °F 65% 29.97 in 10.0 mi East 10.4 mph - N/A   Mostly Cloudy
11:12 AM 87.1 °F 95.4 °F 73.9 °F 65% 29.98 in 10.0 mi East 6.9 mph - N/A   Mostly Cloudy
11:19 AM 87.1 °F 96.3 °F 75.0 °F 67% 29.98 in 10.0 mi Variable 4.6 mph - N/A   Mostly Cloudy
11:53 AM 88.0 °F 94.7 °F 72.0 °F 59% 29.99 in 10.0 mi East 8.1 mph - N/A   Partly Cloudy
12:53 PM 86.0 °F 95.1 °F 75.0 °F 70% 29.98 in 10.0 mi ESE 5.8 mph - N/A   Partly Cloudy
1:53 PM 84.9 °F 94.1 °F 75.9 °F 74% 29.96 in 10.0 mi ESE 3.5 mph - N/A   Partly Cloudy
2:44 PM 84.0 °F 92.6 °F 75.9 °F 76% 29.97 in 10.0 mi ESE 4.6 mph - N/A Thunderstorm Mostly Cloudy
3:05 PM 82.0 °F 88.6 °F 75.0 °F 79% 29.97 in 10.0 mi SSW 5.8 mph - N/A Thunderstorm Mostly Cloudy
3:26 PM 79.0 °F - 75.0 °F 88% 29.98 in 3.0 mi Variable 3.5 mph - 0.00 in Rain , Thunderstorm Thunderstorms and Rain
3:32 PM 78.1 °F - 75.0 °F 90% 29.99 in 3.0 mi SE 10.4 mph - N/A Rain , Thunderstorm Thunderstorms and Rain
3:35 PM 77.0 °F - 73.9 °F 90% 29.99 in 2.5 mi SE 6.9 mph - N/A Rain Heavy Rain
3:44 PM 75.0 °F - 72.0 °F 90% 29.99 in 1.8 mi Variable 6.9 mph 18.4 mph N/A Rain Rain
3:48 PM 75.2 °F - 71.6 °F 89% 29.99 in 3.0 mi SSE 4.6 mph - N/A Rain Light Rain
3:53 PM 75.0 °F - 71.1 °F 87% 29.98 in 3.0 mi South 4.6 mph - N/A Rain Light Rain
4:03 PM 75.0 °F - 72.0 °F 90% 29.97 in 3.0 mi Calm Calm - 0.03 in Rain Rain
4:53 PM 75.9 °F - 72.0 °F 87% 29.97 in 10.0 mi NE 4.6 mph - 0.15 in Rain Light Rain
5:53 PM 75.9 °F - 73.9 °F 94% 29.95 in 10.0 mi Calm Calm - N/A   Scattered Clouds
6:53 PM 77.0 °F - 75.0 °F 94% 29.97 in 10.0 mi Calm Calm - N/A   Clear
7:05 PM 77.0 °F - 75.0 °F 94% 29.97 in 10.0 mi Calm Calm - N/A   Scattered Clouds
7:14 PM 77.0 °F - 75.0 °F 94% 29.96 in 10.0 mi ENE 3.5 mph - N/A   Mostly Cloudy
7:40 PM 77.0 °F - 75.0 °F 94% 29.96 in 10.0 mi NE 4.6 mph - N/A   Overcast
7:53 PM 77.0 °F - 75.0 °F 94% 29.95 in 10.0 mi East 4.6 mph - N/A   Overcast
8:45 PM 77.0 °F - 75.0 °F 94% 29.96 in 10.0 mi East 6.9 mph - N/A   Overcast
8:53 PM 77.0 °F - 75.0 °F 94% 29.97 in 10.0 mi ESE 6.9 mph - N/A   Overcast
9:39 PM 77.0 °F - 75.0 °F 94% 30.00 in 10.0 mi SE 3.5 mph - N/A   Mostly Cloudy
10:53 PM 78.1 °F - 75.0 °F 90% 30.01 in 10.0 mi Calm Calm - 0.00 in   Scattered Clouds
11:53 PM 79.0 °F - 75.0 °F 88% 30.03 in 10.0 mi South 4.6 mph - N/A   Scattered Clouds